Find Yunhai-2 02 zu 04 xing

NORAD ID: 59283 Int'l Des: 2024-052 Owner: CASC Country: CN operational
LEOCIRCULAR

リアルタイム位置

3D地球を読み込み中...

Yunhai-2 02 zu 04 xingについて

説明を読み込み中...

次回通過

Passes for default location (London). Set your location on the main map for personalized predictions.

高度履歴

Loading altitude history...

軌道要素

1 59283U 24052D 26107.28760014 -.00000086 00000-0 30272-4 0 9997
2 59283 50.0060 160.4477 0004439 6.2218 353.8752 14.27973603109698
Epoch: Apr 17, 2026 • Age: 7 hours

現在のステータス

高度 803.0 km
速度 7.46 km/s
衛星直下点 38.50°N, 121.26°W
打ち上げ日 Mar 21, 2024
運用期間 2 years
タイプ other

技術仕様

分類 Payload
質量 100.00 kg
乾燥質量 100.00 kg
総質量 100.00 kg
長さ 0.50 m
直径 0.20 m
スパン 1.00 m
形状 Box + 2 pan
製造者 DFHS
バスタイプ YH-2
フェーズステータス In Orbit
所有者/国 CASC/CN

Most Searched